Time,TemperatureF,DewpointF,PressureIn,WindDirection,WindDirectionDegrees,WindSpeedMPH,WindSpeedGustMPH,Humidity,HourlyPrecipIn,Conditions,Clouds,dailyrainin,SoftwareType,DateUTC
2013-08-02 00:00:00,81.7,77.1,29.89,SSE,165,2.0,2.0,86,0.00,,,0.00,Wunderground v.1.15,2013-08-02 05:00:00,
2013-08-02 00:10:00,81.7,77.1,29.89,South,179,3.0,3.0,86,0.00,,,0.00,Wunderground v.1.15,2013-08-02 05:10:00,
2013-08-02 00:15:00,81.7,77.1,29.89,SE,135,3.0,3.0,86,0.00,,,0.00,Wunderground v.1.15,2013-08-02 05:15:00,
2013-08-02 00:20:00,81.7,77.1,29.89,South,184,3.0,3.0,86,0.00,,,0.00,Wunderground v.1.15,2013-08-02 05:20:00,
2013-08-02 00:25:00,81.7,77.1,29.89,South,177,3.0,3.0,86,0.00,,,0.00,Wunderground v.1.15,2013-08-02 05:25:00,
2013-08-02 00:30:00,81.7,77.1,29.89,SSE,167,3.0,3.0,86,0.00,,,0.00,Wunderground v.1.15,2013-08-02 05:30:00,
2013-08-02 00:35:00,81.7,77.1,29.89,SSE,150,4.0,4.0,86,0.00,,,0.00,Wunderground v.1.15,2013-08-02 05:35:00,
2013-08-02 00:40:00,81.7,77.1,29.89,South,170,3.0,4.0,86,0.00,,,0.00,Wunderground v.1.15,2013-08-02 05:40:00,
2013-08-02 00:50:00,81.7,77.1,29.89,SE,144,3.0,3.0,86,0.00,,,0.00,Wunderground v.1.15,2013-08-02 05:50:00,
2013-08-02 00:55:00,81.6,77.0,29.89,South,174,2.0,3.0,86,0.00,,,0.00,Wunderground v.1.15,2013-08-02 05:55:00,
2013-08-02 01:00:00,81.6,77.4,29.89,SW,236,3.0,3.0,87,0.00,,,0.00,Wunderground v.1.15,2013-08-02 06:00:00,
2013-08-02 01:10:00,81.6,77.4,29.88,SE,141,3.0,3.0,87,0.00,,,0.00,Wunderground v.1.15,2013-08-02 06:10:00,
2013-08-02 01:15:00,81.6,77.4,29.88,SSE,166,2.0,3.0,87,0.00,,,0.00,Wunderground v.1.15,2013-08-02 06:15:00,
2013-08-02 01:20:00,81.6,77.4,29.88,WSW,243,2.0,2.0,87,0.00,,,0.00,Wunderground v.1.15,2013-08-02 06:20:00,
2013-08-02 01:25:00,81.5,77.3,29.88,SSW,197,2.0,2.0,87,0.00,,,0.00,Wunderground v.1.15,2013-08-02 06:25:00,
2013-08-02 01:30:00,81.5,77.3,29.88,SW,221,3.0,3.0,87,0.00,,,0.00,Wunderground v.1.15,2013-08-02 06:30:00,
2013-08-02 01:35:00,81.4,77.5,29.88,South,191,2.0,3.0,88,0.00,,,0.00,Wunderground v.1.15,2013-08-02 06:35:00,
2013-08-02 01:40:00,81.4,77.5,29.88,South,176,2.0,5.0,88,0.00,,,0.00,Wunderground v.1.15,2013-08-02 06:40:00,
2013-08-02 01:45:00,81.3,77.4,29.88,SE,146,3.0,5.0,88,0.00,,,0.00,Wunderground v.1.15,2013-08-02 06:45:00,
2013-08-02 01:55:00,81.3,77.4,29.87,SSE,168,4.0,7.0,88,0.00,,,0.00,Wunderground v.1.15,2013-08-02 06:55:00,
2013-08-02 02:00:00,81.3,77.4,29.87,South,180,3.0,5.0,88,0.00,,,0.00,Wunderground v.1.15,2013-08-02 07:00:00,
2013-08-02 02:10:00,81.1,77.2,29.87,South,186,3.0,3.0,88,0.00,,,0.00,Wunderground v.1.15,2013-08-02 07:10:00,
2013-08-02 02:15:00,81.0,77.4,29.87,SSW,200,3.0,3.0,89,0.00,,,0.00,Wunderground v.1.15,2013-08-02 07:15:00,
2013-08-02 02:20:00,80.9,77.4,29.86,SSW,203,3.0,3.0,89,0.00,,,0.00,Wunderground v.1.15,2013-08-02 07:20:00,
2013-08-02 02:29:00,80.8,77.3,29.86,SSE,164,3.0,3.0,89,0.00,,,0.00,Wunderground v.1.15,2013-08-02 07:29:00,
2013-08-02 02:34:00,80.7,77.2,29.86,SSW,194,3.0,5.0,89,0.00,,,0.00,Wunderground v.1.15,2013-08-02 07:34:00,
2013-08-02 02:39:00,80.6,77.1,29.86,SSE,163,2.0,2.0,89,0.00,,,0.00,Wunderground v.1.15,2013-08-02 07:39:00,
2013-08-02 02:44:00,80.5,77.3,29.86,SSE,165,2.0,2.0,90,0.00,,,0.00,Wunderground v.1.15,2013-08-02 07:44:00,
2013-08-02 02:49:00,80.4,77.2,29.86,South,176,2.0,3.0,90,0.00,,,0.00,Wunderground v.1.15,2013-08-02 07:49:00,
2013-08-02 02:55:00,80.4,77.2,29.86,SSW,211,2.0,5.0,90,0.00,,,0.00,Wunderground v.1.15,2013-08-02 07:55:00,
2013-08-02 03:00:00,80.3,77.1,29.86,South,181,3.0,5.0,90,0.00,,,0.00,Wunderground v.1.15,2013-08-02 08:00:00,
2013-08-02 03:10:00,80.1,76.9,29.85,SSW,193,2.0,5.0,90,0.00,,,0.00,Wunderground v.1.15,2013-08-02 08:10:00,
2013-08-02 03:14:00,80.1,76.9,29.85,SSW,207,2.0,5.0,90,0.00,,,0.00,Wunderground v.1.15,2013-08-02 08:14:00,
2013-08-02 03:20:00,80.0,76.8,29.85,SW,224,2.0,2.0,90,0.00,,,0.00,Wunderground v.1.15,2013-08-02 08:20:00,
2013-08-02 03:25:00,79.9,76.7,29.85,South,169,2.0,4.0,90,0.00,,,0.00,Wunderground v.1.15,2013-08-02 08:25:00,
2013-08-02 03:35:00,79.8,76.6,29.85,SSW,205,2.0,5.0,90,0.00,,,0.00,Wunderground v.1.15,2013-08-02 08:35:00,
2013-08-02 03:40:00,79.8,76.6,29.85,SSW,207,2.0,2.0,90,0.00,,,0.00,Wunderground v.1.15,2013-08-02 08:40:00,
2013-08-02 03:44:00,79.7,76.5,29.86,West,269,2.0,2.0,90,0.00,,,0.00,Wunderground v.1.15,2013-08-02 08:44:00,
2013-08-02 03:50:00,79.7,76.5,29.86,SW,217,2.0,2.0,90,0.00,,,0.00,Wunderground v.1.15,2013-08-02 08:50:00,
2013-08-02 03:55:00,79.8,76.6,29.86,South,184,2.0,2.0,90,0.00,,,0.00,Wunderground v.1.15,2013-08-02 08:55:00,
2013-08-02 04:00:00,79.8,76.6,29.86,SSW,213,2.0,2.0,90,0.00,,,0.00,Wunderground v.1.15,2013-08-02 09:00:00,
2013-08-02 04:09:00,79.6,76.4,29.86,SE,142,1.0,1.0,90,0.00,,,0.00,Wunderground v.1.15,2013-08-02 09:09:00,
2013-08-02 04:15:00,79.6,76.4,29.86,SW,221,1.0,1.0,90,0.00,,,0.00,Wunderground v.1.15,2013-08-02 09:15:00,
2013-08-02 04:20:00,79.6,76.4,29.86,SW,228,1.0,1.0,90,0.00,,,0.00,Wunderground v.1.15,2013-08-02 09:20:00,
2013-08-02 04:25:00,79.5,76.3,29.86,South,187,2.0,2.0,90,0.00,,,0.00,Wunderground v.1.15,2013-08-02 09:25:00,
2013-08-02 04:30:00,79.5,76.3,29.86,SW,226,2.0,6.0,90,0.00,,,0.00,Wunderground v.1.15,2013-08-02 09:30:00,
2013-08-02 04:40:00,79.4,76.2,29.86,South,190,2.0,2.0,90,0.00,,,0.00,Wunderground v.1.15,2013-08-02 09:40:00,
2013-08-02 04:45:00,79.4,76.2,29.86,South,188,2.0,2.0,90,0.00,,,0.00,Wunderground v.1.15,2013-08-02 09:45:00,
2013-08-02 04:50:00,79.3,76.1,29.86,SW,221,2.0,3.0,90,0.00,,,0.00,Wunderground v.1.15,2013-08-02 09:50:00,
2013-08-02 04:55:00,79.2,76.0,29.86,SSW,203,2.0,3.0,90,0.00,,,0.00,Wunderground v.1.15,2013-08-02 09:55:00,
2013-08-02 07:15:00,78.4,75.9,29.88,SW,221,0.0,0.0,92,0.00,,,0.00,Wunderground v.1.15,2013-08-02 12:15:00,
2013-08-02 07:20:00,78.4,75.9,29.88,SSW,213,0.0,0.0,92,0.00,,,0.00,Wunderground v.1.15,2013-08-02 12:20:00,
2013-08-02 07:30:00,78.9,76.4,29.88,SW,222,0.0,0.0,92,0.00,,,0.00,Wunderground v.1.15,2013-08-02 12:30:00,
2013-08-02 07:35:00,79.3,76.4,29.88,SSW,199,0.0,0.0,91,0.00,,,0.00,Wunderground v.1.15,2013-08-02 12:35:00,
2013-08-02 07:40:00,79.6,76.7,29.88,SW,218,0.0,0.0,91,0.00,,,0.00,Wunderground v.1.15,2013-08-02 12:40:00,
2013-08-02 07:45:00,80.0,76.8,29.89,SW,229,0.0,0.0,90,0.00,,,0.00,Wunderground v.1.15,2013-08-02 12:45:00,
2013-08-02 07:50:00,80.5,77.3,29.89,SSE,152,0.0,0.0,90,0.00,,,0.00,Wunderground v.1.15,2013-08-02 12:50:00,
2013-08-02 08:00:00,81.2,77.0,29.89,SSE,153,1.0,5.0,87,0.00,,,0.00,Wunderground v.1.15,2013-08-02 13:00:00,
2013-08-02 08:10:00,81.7,77.1,29.90,SSE,153,1.0,2.0,86,0.00,,,0.00,Wunderground v.1.15,2013-08-02 13:10:00,
2013-08-02 08:15:00,81.8,77.2,29.90,SSE,163,2.0,3.0,86,0.00,,,0.00,Wunderground v.1.15,2013-08-02 13:15:00,
2013-08-02 08:20:00,82.1,77.1,29.90,South,172,2.0,3.0,85,0.00,,,0.00,Wunderground v.1.15,2013-08-02 13:20:00,
2013-08-02 08:25:00,82.4,77.1,29.90,SSW,193,2.0,5.0,84,0.00,,,0.00,Wunderground v.1.15,2013-08-02 13:25:00,
2013-08-02 08:35:00,82.9,77.6,29.90,South,183,2.0,3.0,84,0.00,,,0.00,Wunderground v.1.15,2013-08-02 13:35:00,
2013-08-02 08:40:00,83.2,77.5,29.91,SE,141,2.0,2.0,83,0.00,,,0.00,Wunderground v.1.15,2013-08-02 13:40:00,
2013-08-02 08:45:00,83.6,77.5,29.91,West,265,2.0,2.0,82,0.00,,,0.00,Wunderground v.1.15,2013-08-02 13:45:00,
2013-08-02 08:50:00,83.8,77.7,29.91,SW,217,2.0,2.0,82,0.00,,,0.00,Wunderground v.1.15,2013-08-02 13:50:00,
2013-08-02 08:55:00,84.4,77.9,29.92,SSE,160,2.0,4.0,81,0.00,,,0.00,Wunderground v.1.15,2013-08-02 13:55:00,
2013-08-02 09:00:00,84.5,77.6,29.92,ESE,114,3.0,3.0,80,0.00,,,0.00,Wunderground v.1.15,2013-08-02 14:00:00,
2013-08-02 09:10:00,84.8,77.6,29.92,SE,131,2.0,2.0,79,0.00,,,0.00,Wunderground v.1.15,2013-08-02 14:10:00,
2013-08-02 09:15:00,84.7,77.1,29.91,SSW,198,3.0,3.0,78,0.00,,,0.00,Wunderground v.1.15,2013-08-02 14:15:00,
2013-08-02 09:20:00,85.1,77.8,29.91,SSW,194,3.0,4.0,79,0.00,,,0.00,Wunderground v.1.15,2013-08-02 14:20:00,
2013-08-02 09:25:00,85.2,77.2,29.91,South,169,2.0,7.0,77,0.00,,,0.00,Wunderground v.1.15,2013-08-02 14:25:00,
2013-08-02 09:30:00,85.0,77.0,29.91,South,187,4.0,8.0,77,0.00,,,0.00,Wunderground v.1.15,2013-08-02 14:30:00,
2013-08-02 09:40:00,85.6,77.2,29.91,SSW,210,4.0,6.0,76,0.00,,,0.00,Wunderground v.1.15,2013-08-02 14:40:00,
2013-08-02 09:45:00,86.0,77.1,29.91,SSW,211,4.0,6.0,75,0.00,,,0.00,Wunderground v.1.15,2013-08-02 14:45:00,
2013-08-02 09:50:00,86.6,77.3,29.91,SE,137,3.0,3.0,74,0.00,,,0.00,Wunderground v.1.15,2013-08-02 14:50:00,
2013-08-02 09:55:00,86.7,76.6,29.91,SSW,200,3.0,5.0,72,0.00,,,0.00,Wunderground v.1.15,2013-08-02 14:55:00,
2013-08-02 10:00:00,86.7,77.0,29.91,SSW,208,4.0,7.0,73,0.00,,,0.00,Wunderground v.1.15,2013-08-02 15:00:00,
2013-08-02 10:10:00,87.0,76.5,29.91,South,191,4.0,4.0,71,0.00,,,0.00,Wunderground v.1.15,2013-08-02 15:10:00,
2013-08-02 10:15:00,87.3,76.3,29.91,SSE,159,4.0,5.0,70,0.00,,,0.00,Wunderground v.1.15,2013-08-02 15:15:00,
2013-08-02 10:20:00,87.5,76.5,29.91,SSW,204,4.0,4.0,70,0.00,,,0.00,Wunderground v.1.15,2013-08-02 15:20:00,
2013-08-02 10:25:00,88.0,76.5,29.91,SW,233,4.0,4.0,69,0.00,,,0.00,Wunderground v.1.15,2013-08-02 15:25:00,
2013-08-02 10:30:00,88.5,76.6,29.91,SW,226,3.0,3.0,68,0.00,,,0.00,Wunderground v.1.15,2013-08-02 15:30:00,
2013-08-02 10:35:00,88.6,76.2,29.91,SSE,153,3.0,4.0,67,0.00,,,0.00,Wunderground v.1.15,2013-08-02 15:35:00,
2013-08-02 10:45:00,89.0,76.2,29.91,SSE,156,2.0,3.0,66,0.00,,,0.00,Wunderground v.1.15,2013-08-02 15:45:00,
2013-08-02 10:50:00,89.0,76.2,29.90,East,94,2.0,3.0,66,0.00,,,0.00,Wunderground v.1.15,2013-08-02 15:50:00,
2013-08-02 10:55:00,89.5,76.2,29.90,SSE,165,2.0,3.0,65,0.00,,,0.00,Wunderground v.1.15,2013-08-02 15:55:00,
2013-08-02 11:00:00,89.8,76.0,29.90,SSW,212,2.0,2.0,64,0.00,,,0.00,Wunderground v.1.15,2013-08-02 16:00:00,
2013-08-02 11:10:00,90.1,75.3,29.90,SSE,150,3.0,7.0,62,0.00,,,0.00,Wunderground v.1.15,2013-08-02 16:10:00,
2013-08-02 11:15:00,89.5,74.8,29.90,SSE,157,4.0,7.0,62,0.00,,,0.00,Wunderground v.1.15,2013-08-02 16:15:00,
2013-08-02 11:20:00,89.6,73.9,29.91,ESE,108,4.0,4.0,60,0.00,,,0.00,Wunderground v.1.15,2013-08-02 16:20:00,
2013-08-02 11:25:00,89.8,75.5,29.90,South,181,3.0,4.0,63,0.00,,,0.00,Wunderground v.1.15,2013-08-02 16:25:00,
2013-08-02 11:30:00,90.4,76.1,29.90,SSE,153,3.0,3.0,63,0.00,,,0.00,Wunderground v.1.15,2013-08-02 16:30:00,
2013-08-02 11:35:00,91.3,75.0,29.91,South,169,2.0,5.0,59,0.00,,,0.00,Wunderground v.1.15,2013-08-02 16:35:00,
2013-08-02 11:40:00,91.4,74.5,29.91,SE,143,3.0,6.0,58,0.00,,,0.00,Wunderground v.1.15,2013-08-02 16:40:00,
2013-08-02 11:50:00,90.0,76.6,29.91,ESE,116,6.0,7.0,65,0.00,,,0.00,Wunderground v.1.15,2013-08-02 16:50:00,
2013-08-02 11:55:00,89.5,75.7,29.91,ESE,103,7.0,11.0,64,0.00,,,0.00,Wunderground v.1.15,2013-08-02 16:55:00,
2013-08-02 12:00:00,89.6,75.3,29.90,South,188,6.0,6.0,63,0.00,,,0.00,Wunderground v.1.15,2013-08-02 17:00:00,
2013-08-02 12:09:00,91.5,74.1,29.90,East,97,4.0,5.0,57,0.00,,,0.00,Wunderground v.1.15,2013-08-02 17:09:00,
2013-08-02 12:15:00,91.6,73.7,29.90,SW,233,4.0,5.0,56,0.00,,,0.00,Wunderground v.1.15,2013-08-02 17:15:00,
2013-08-02 12:24:00,91.0,74.7,29.90,SSE,148,6.0,6.0,59,0.00,,,0.00,Wunderground v.1.15,2013-08-02 17:24:00,
2013-08-02 12:29:00,91.2,75.4,29.89,ESE,110,5.0,5.0,60,0.00,,,0.00,Wunderground v.1.15,2013-08-02 17:29:00,
2013-08-02 12:34:00,91.1,74.8,29.89,SE,125,5.0,5.0,59,0.00,,,0.00,Wunderground v.1.15,2013-08-02 17:34:00,
2013-08-02 12:39:00,91.1,73.2,29.89,SSE,147,5.0,5.0,56,0.00,,,0.00,Wunderground v.1.15,2013-08-02 17:39:00,
2013-08-02 12:44:00,91.1,74.8,29.89,SW,228,7.0,7.0,59,0.00,,,0.00,Wunderground v.1.15,2013-08-02 17:44:00,
2013-08-02 12:50:00,91.8,75.4,29.89,SSE,159,5.0,6.0,59,0.00,,,0.00,Wunderground v.1.15,2013-08-02 17:50:00,
2013-08-02 12:55:00,91.3,75.5,29.89,ESE,114,5.0,6.0,60,0.00,,,0.00,Wunderground v.1.15,2013-08-02 17:55:00,
2013-08-02 13:00:00,91.6,76.2,29.89,South,173,5.0,5.0,61,0.00,,,0.00,Wunderground v.1.15,2013-08-02 18:00:00,
2013-08-02 13:10:00,91.2,74.9,29.88,ESE,114,5.0,5.0,59,0.00,,,0.00,Wunderground v.1.15,2013-08-02 18:10:00,
2013-08-02 13:15:00,90.7,74.9,29.88,ESE,108,7.0,7.0,60,0.00,,,0.00,Wunderground v.1.15,2013-08-02 18:15:00,
2013-08-02 13:19:00,90.0,74.7,29.88,ENE,66,8.0,11.0,61,0.00,,,0.00,Wunderground v.1.15,2013-08-02 18:19:00,
2013-08-02 13:30:00,90.0,74.7,29.88,East,86,7.0,7.0,61,0.00,,,0.00,Wunderground v.1.15,2013-08-02 18:30:00,
2013-08-02 13:35:00,90.1,75.3,29.87,East,101,6.0,7.0,62,0.00,,,0.00,Wunderground v.1.15,2013-08-02 18:35:00,
2013-08-02 13:39:00,90.1,75.3,29.87,East,80,7.0,7.0,62,0.00,,,0.00,Wunderground v.1.15,2013-08-02 18:39:00,
2013-08-02 13:45:00,90.2,75.4,29.87,ESE,120,7.0,7.0,62,0.00,,,0.00,Wunderground v.1.15,2013-08-02 18:45:00,
2013-08-02 13:50:00,90.5,74.2,29.87,East,94,7.0,7.0,59,0.00,,,0.00,Wunderground v.1.15,2013-08-02 18:50:00,
2013-08-02 13:55:00,91.2,75.9,29.87,ESE,112,6.0,10.0,61,0.00,,,0.00,Wunderground v.1.15,2013-08-02 18:55:00,
2013-08-02 14:00:00,90.8,75.0,29.87,SE,141,7.0,9.0,60,0.00,,,0.00,Wunderground v.1.15,2013-08-02 19:00:00,
2013-08-02 14:09:00,89.9,75.1,29.87,ENE,75,9.0,9.0,62,0.00,,,0.00,Wunderground v.1.15,2013-08-02 19:09:00,
2013-08-02 14:15:00,89.9,75.1,29.87,SE,127,8.0,9.0,62,0.00,,,0.00,Wunderground v.1.15,2013-08-02 19:15:00,
2013-08-02 14:20:00,89.9,75.6,29.87,SE,136,8.0,8.0,63,0.00,,,0.00,Wunderground v.1.15,2013-08-02 19:20:00,
2013-08-02 14:25:00,90.2,75.9,29.87,East,94,7.0,12.0,63,0.00,,,0.00,Wunderground v.1.15,2013-08-02 19:25:00,
2013-08-02 14:35:00,90.4,75.6,29.87,ESE,116,8.0,8.0,62,0.00,,,0.00,Wunderground v.1.15,2013-08-02 19:35:00,
2013-08-02 14:39:00,90.3,76.0,29.87,SE,134,7.0,7.0,63,0.00,,,0.00,Wunderground v.1.15,2013-08-02 19:39:00,
2013-08-02 14:44:00,90.2,75.9,29.87,SE,131,6.0,8.0,63,0.00,,,0.00,Wunderground v.1.15,2013-08-02 19:44:00,
2013-08-02 14:55:00,89.5,75.7,29.86,ENE,70,7.0,7.0,64,0.00,,,0.00,Wunderground v.1.15,2013-08-02 19:55:00,
2013-08-02 15:00:00,89.4,76.1,29.86,ESE,117,7.0,14.0,65,0.00,,,0.00,Wunderground v.1.15,2013-08-02 20:00:00,
2013-08-02 15:10:00,89.3,76.0,29.86,SSE,165,7.0,7.0,65,0.00,,,0.00,Wunderground v.1.15,2013-08-02 20:10:00,
2013-08-02 15:15:00,89.5,75.7,29.86,East,96,7.0,7.0,64,0.00,,,0.00,Wunderground v.1.15,2013-08-02 20:15:00,
2013-08-02 15:20:00,89.8,76.0,29.86,ESE,102,7.0,7.0,64,0.00,,,0.00,Wunderground v.1.15,2013-08-02 20:20:00,
2013-08-02 15:25:00,89.5,75.7,29.86,SE,124,7.0,7.0,64,0.00,,,0.00,Wunderground v.1.15,2013-08-02 20:25:00,
2013-08-02 15:30:00,89.5,75.7,29.86,ESE,111,8.0,10.0,64,0.00,,,0.00,Wunderground v.1.15,2013-08-02 20:30:00,
2013-08-02 15:40:00,90.0,75.7,29.86,ESE,113,6.0,7.0,63,0.00,,,0.00,Wunderground v.1.15,2013-08-02 20:40:00,
2013-08-02 15:45:00,89.6,75.8,29.85,East,82,8.0,9.0,64,0.00,,,0.00,Wunderground v.1.15,2013-08-02 20:45:00,
2013-08-02 15:50:00,90.0,76.6,29.85,SSE,152,7.0,7.0,65,0.00,,,0.00,Wunderground v.1.15,2013-08-02 20:50:00,
2013-08-02 15:54:00,90.0,75.7,29.85,ESE,110,6.0,7.0,63,0.00,,,0.00,Wunderground v.1.15,2013-08-02 20:54:00,
2013-08-02 16:00:00,90.0,76.2,29.85,ESE,104,6.0,6.0,64,0.00,,,0.00,Wunderground v.1.15,2013-08-02 21:00:00,
2013-08-02 16:10:00,90.5,76.2,29.85,ESE,102,6.0,7.0,63,0.00,,,0.00,Wunderground v.1.15,2013-08-02 21:10:00,
2013-08-02 16:15:00,90.4,76.1,29.85,SE,146,6.0,7.0,63,0.00,,,0.00,Wunderground v.1.15,2013-08-02 21:15:00,
2013-08-02 16:20:00,90.7,75.9,29.84,SE,129,6.0,7.0,62,0.00,,,0.00,Wunderground v.1.15,2013-08-02 21:20:00,
2013-08-02 16:24:00,90.6,76.3,29.85,ESE,117,6.0,7.0,63,0.00,,,0.00,Wunderground v.1.15,2013-08-02 21:24:00,
2013-08-02 16:30:00,90.4,76.1,29.84,SSE,167,6.0,6.0,63,0.00,,,0.00,Wunderground v.1.15,2013-08-02 21:30:00,
2013-08-02 16:35:00,90.9,75.6,29.84,East,90,6.0,10.0,61,0.00,,,0.00,Wunderground v.1.15,2013-08-02 21:35:00,
2013-08-02 16:45:00,89.9,76.1,29.84,East,91,7.0,7.0,64,0.00,,,0.00,Wunderground v.1.15,2013-08-02 21:45:00,
2013-08-02 16:50:00,89.8,76.5,29.84,East,98,7.0,7.0,65,0.00,,,0.00,Wunderground v.1.15,2013-08-02 21:50:00,
2013-08-02 16:55:00,89.8,76.0,29.84,East,88,7.0,7.0,64,0.00,,,0.00,Wunderground v.1.15,2013-08-02 21:55:00,
2013-08-02 17:00:00,89.4,76.1,29.84,ESE,117,7.0,13.0,65,0.00,,,0.00,Wunderground v.1.15,2013-08-02 22:00:00,
2013-08-02 17:10:00,88.9,76.1,29.83,SE,135,7.0,7.0,66,0.00,,,0.00,Wunderground v.1.15,2013-08-02 22:10:00,
2013-08-02 17:14:00,89.6,75.8,29.84,SE,128,5.0,7.0,64,0.00,,,0.00,Wunderground v.1.15,2013-08-02 22:14:00,
2013-08-02 17:20:00,89.3,76.0,29.84,ESE,115,5.0,5.0,65,0.00,,,0.00,Wunderground v.1.15,2013-08-02 22:20:00,
2013-08-02 17:25:00,89.1,76.3,29.84,ESE,115,6.0,6.0,66,0.00,,,0.00,Wunderground v.1.15,2013-08-02 22:25:00,
2013-08-02 17:30:00,88.6,76.2,29.84,ESE,119,6.0,6.0,67,0.00,,,0.00,Wunderground v.1.15,2013-08-02 22:30:00,
2013-08-02 17:35:00,88.1,76.2,29.84,ESE,117,7.0,7.0,68,0.00,,,0.00,Wunderground v.1.15,2013-08-02 22:35:00,
2013-08-02 17:40:00,87.6,76.2,29.84,East,91,7.0,7.0,69,0.00,,,0.00,Wunderground v.1.15,2013-08-02 22:40:00,
2013-08-02 17:50:00,87.4,75.5,29.83,East,93,7.0,7.0,68,0.00,,,0.00,Wunderground v.1.15,2013-08-02 22:50:00,
2013-08-02 17:55:00,87.4,76.4,29.83,SE,134,6.0,7.0,70,0.00,,,0.00,Wunderground v.1.15,2013-08-02 22:55:00,
2013-08-02 18:00:00,87.6,76.2,29.83,ESE,115,5.0,8.0,69,0.00,,,0.00,Wunderground v.1.15,2013-08-02 23:00:00,
2013-08-02 18:10:00,87.5,76.1,29.83,ESE,123,7.0,7.0,69,0.00,,,0.00,Wunderground v.1.15,2013-08-02 23:10:00,
2013-08-02 18:20:00,87.5,76.5,29.83,SE,132,5.0,5.0,70,0.00,,,0.00,Wunderground v.1.15,2013-08-02 23:20:00,
2013-08-02 18:25:00,87.4,76.4,29.83,ESE,105,6.0,6.0,70,0.00,,,0.00,Wunderground v.1.15,2013-08-02 23:25:00,
2013-08-02 18:30:00,87.4,76.8,29.83,SE,130,6.0,6.0,71,0.00,,,0.00,Wunderground v.1.15,2013-08-02 23:30:00,
2013-08-02 18:35:00,87.5,76.5,29.83,SE,125,6.0,6.0,70,0.00,,,0.00,Wunderground v.1.15,2013-08-02 23:35:00,
2013-08-02 18:40:00,87.2,76.2,29.83,SSE,156,6.0,9.0,70,0.00,,,0.00,Wunderground v.1.15,2013-08-02 23:40:00,
2013-08-02 18:45:00,87.0,76.0,29.83,SE,124,7.0,11.0,70,0.00,,,0.00,Wunderground v.1.15,2013-08-02 23:45:00,
2013-08-02 18:55:00,86.8,75.8,29.83,SE,125,7.0,14.0,70,0.00,,,0.00,Wunderground v.1.15,2013-08-02 23:55:00,
2013-08-02 19:00:00,86.9,75.9,29.83,East,99,5.0,5.0,70,0.00,,,0.00,Wunderground v.1.15,2013-08-03 00:00:00,
2013-08-02 19:10:00,86.5,76.0,29.84,South,172,7.0,8.0,71,0.00,,,0.00,Wunderground v.1.15,2013-08-03 00:10:00,
2013-08-02 19:15:00,86.5,76.4,29.84,SE,135,6.0,8.0,72,0.00,,,0.00,Wunderground v.1.15,2013-08-03 00:15:00,
2013-08-02 19:25:00,86.0,75.9,29.84,SE,129,5.0,5.0,72,0.00,,,0.00,Wunderground v.1.15,2013-08-03 00:25:00,
2013-08-02 19:30:00,85.6,75.9,29.84,SSE,156,6.0,9.0,73,0.00,,,0.00,Wunderground v.1.15,2013-08-03 00:30:00,
2013-08-02 19:35:00,85.3,76.1,29.84,ESE,117,7.0,12.0,74,0.00,,,0.00,Wunderground v.1.15,2013-08-03 00:35:00,
2013-08-02 19:40:00,85.1,76.3,29.84,ESE,112,7.0,12.0,75,0.00,,,0.00,Wunderground v.1.15,2013-08-03 00:40:00,
2013-08-02 19:45:00,85.0,76.2,29.84,East,81,6.0,12.0,75,0.00,,,0.00,Wunderground v.1.15,2013-08-03 00:45:00,
2013-08-02 19:50:00,84.9,76.5,29.85,SE,128,5.0,5.0,76,0.00,,,0.00,Wunderground v.1.15,2013-08-03 00:50:00,
2013-08-02 20:00:00,84.5,76.5,29.85,ESE,118,6.0,6.0,77,0.00,,,0.00,Wunderground v.1.15,2013-08-03 01:00:00,
2013-08-02 20:10:00,84.3,76.7,29.85,SE,143,5.0,5.0,78,0.00,,,0.00,Wunderground v.1.15,2013-08-03 01:10:00,
2013-08-02 20:15:00,84.2,76.6,29.85,East,88,6.0,6.0,78,0.00,,,0.00,Wunderground v.1.15,2013-08-03 01:15:00,
2013-08-02 20:20:00,84.1,76.5,29.85,ESE,118,5.0,6.0,78,0.00,,,0.00,Wunderground v.1.15,2013-08-03 01:20:00,
2013-08-02 20:30:00,84.0,76.8,29.86,East,82,6.0,6.0,79,0.00,,,0.00,Wunderground v.1.15,2013-08-03 01:30:00,
2013-08-02 20:35:00,83.9,76.7,29.86,ENE,67,6.0,6.0,79,0.00,,,0.00,Wunderground v.1.15,2013-08-03 01:35:00,
2013-08-02 20:40:00,83.9,76.7,29.86,ENE,77,6.0,8.0,79,0.00,,,0.00,Wunderground v.1.15,2013-08-03 01:40:00,
2013-08-02 20:45:00,83.8,77.0,29.86,ESE,122,6.0,8.0,80,0.00,,,0.00,Wunderground v.1.15,2013-08-03 01:45:00,
2013-08-02 20:50:00,83.8,77.0,29.86,East,87,6.0,6.0,80,0.00,,,0.00,Wunderground v.1.15,2013-08-03 01:50:00,
2013-08-02 20:55:00,83.7,76.9,29.86,SW,224,5.0,6.0,80,0.00,,,0.00,Wunderground v.1.15,2013-08-03 01:55:00,
2013-08-02 21:00:00,83.6,76.4,29.86,SE,135,3.0,3.0,79,0.00,,,0.00,Wunderground v.1.15,2013-08-03 02:00:00,
2013-08-02 21:10:00,83.5,76.7,29.86,SE,145,4.0,4.0,80,0.00,,,0.00,Wunderground v.1.15,2013-08-03 02:10:00,
2013-08-02 21:15:00,83.5,76.7,29.86,SSE,152,5.0,5.0,80,0.00,,,0.00,Wunderground v.1.15,2013-08-03 02:15:00,
2013-08-02 21:20:00,83.5,76.7,29.86,SSE,158,5.0,5.0,80,0.00,,,0.00,Wunderground v.1.15,2013-08-03 02:20:00,
2013-08-02 21:25:00,83.6,76.8,29.87,ESE,105,5.0,5.0,80,0.00,,,0.00,Wunderground v.1.15,2013-08-03 02:25:00,
2013-08-02 21:35:00,83.5,76.7,29.87,ESE,121,4.0,12.0,80,0.00,,,0.00,Wunderground v.1.15,2013-08-03 02:35:00,
2013-08-02 21:40:00,83.5,77.1,29.87,ESE,105,5.0,5.0,81,0.00,,,0.00,Wunderground v.1.15,2013-08-03 02:40:00,
2013-08-02 21:45:00,83.4,76.6,29.87,ESE,112,5.0,5.0,80,0.00,,,0.00,Wunderground v.1.15,2013-08-03 02:45:00,
2013-08-02 21:50:00,83.3,76.9,29.87,ESE,104,4.0,4.0,81,0.00,,,0.00,Wunderground v.1.15,2013-08-03 02:50:00,
2013-08-02 21:55:00,83.3,76.9,29.87,ESE,121,4.0,4.0,81,0.00,,,0.00,Wunderground v.1.15,2013-08-03 02:55:00,
2013-08-02 22:00:00,83.3,76.9,29.88,ESE,117,4.0,7.0,81,0.00,,,0.00,Wunderground v.1.15,2013-08-03 03:00:00,
2013-08-02 22:09:00,83.2,76.8,29.88,SE,124,5.0,7.0,81,0.00,,,0.00,Wunderground v.1.15,2013-08-03 03:09:00,
2013-08-02 22:14:00,83.2,76.8,29.88,East,81,5.0,7.0,81,0.00,,,0.00,Wunderground v.1.15,2013-08-03 03:14:00,
2013-08-02 22:19:00,83.1,77.0,29.89,East,101,4.0,4.0,82,0.00,,,0.00,Wunderground v.1.15,2013-08-03 03:19:00,
2013-08-02 22:25:00,83.1,77.0,29.89,SE,134,4.0,4.0,82,0.00,,,0.00,Wunderground v.1.15,2013-08-03 03:25:00,
2013-08-02 22:30:00,83.0,76.9,29.89,East,94,4.0,4.0,82,0.00,,,0.00,Wunderground v.1.15,2013-08-03 03:30:00,
2013-08-02 22:35:00,83.0,76.9,29.89,SSE,152,4.0,4.0,82,0.00,,,0.00,Wunderground v.1.15,2013-08-03 03:35:00,
2013-08-02 22:45:00,82.9,77.2,29.89,SSW,194,4.0,5.0,83,0.00,,,0.00,Wunderground v.1.15,2013-08-03 03:45:00,
2013-08-02 22:50:00,82.9,77.2,29.89,ESE,122,4.0,4.0,83,0.00,,,0.00,Wunderground v.1.15,2013-08-03 03:50:00,
2013-08-02 22:55:00,82.9,77.2,29.89,SSE,167,5.0,7.0,83,0.00,,,0.00,Wunderground v.1.15,2013-08-03 03:55:00,
2013-08-02 23:00:00,82.9,77.2,29.89,ESE,114,5.0,5.0,83,0.00,,,0.00,Wunderground v.1.15,2013-08-03 04:00:00,
2013-08-02 23:05:00,82.8,77.5,29.90,SE,145,4.0,5.0,84,0.00,,,0.00,Wunderground v.1.15,2013-08-03 04:05:00,
2013-08-02 23:10:00,82.8,77.5,29.89,ESE,122,4.0,4.0,84,0.00,,,0.00,Wunderground v.1.15,2013-08-03 04:10:00,
2013-08-02 23:15:00,82.8,77.5,29.90,SSE,148,5.0,5.0,84,0.00,,,0.00,Wunderground v.1.15,2013-08-03 04:15:00,
2013-08-02 23:19:00,82.7,77.7,29.89,SE,124,5.0,5.0,85,0.00,,,0.00,Wunderground v.1.15,2013-08-03 04:19:00,
2013-08-02 23:25:00,82.6,77.6,29.89,SSE,160,4.0,5.0,85,0.00,,,0.00,Wunderground v.1.15,2013-08-03 04:25:00,
2013-08-02 23:29:00,82.5,77.5,29.89,South,172,3.0,8.0,85,0.00,,,0.00,Wunderground v.1.15,2013-08-03 04:29:00,
2013-08-02 23:35:00,82.5,77.5,29.89,ENE,73,4.0,8.0,85,0.00,,,0.00,Wunderground v.1.15,2013-08-03 04:35:00,
2013-08-02 23:40:00,82.4,77.4,29.90,SE,139,5.0,5.0,85,0.00,,,0.00,Wunderground v.1.15,2013-08-03 04:40:00,
2013-08-02 23:45:00,82.4,77.4,29.90,SE,141,4.0,5.0,85,0.00,,,0.00,Wunderground v.1.15,2013-08-03 04:45:00,
2013-08-02 23:50:00,82.3,77.3,29.90,SSE,153,4.0,4.0,85,0.00,,,0.00,Wunderground v.1.15,2013-08-03 04:50:00,
2013-08-02 23:55:00,82.3,77.3,29.90,SSE,160,3.0,5.0,85,0.00,,,0.00,Wunderground v.1.15,2013-08-03 04:55:00,